Tracking 18987 objects as of 25-Feb-2018
HD Live streaming from Space Station
objects crossing your sky now

NOAA 16 DEB

Track NOAA 16 DEB now!
10-day predictions


NORAD ID: 42388
Int'l Code: 2000-055SG
Perigee: 842.0 km
Apogee: 868.8 km
Inclination: 98.8 °
Period: 101.9 minutes
Semi major axis: 7226 km
RCS: Unknown
Launch date: September 21, 2000
Source: United States (US)
Launch site: AIR FORCE WESTERN TEST RANGE (AFWTR)

Note: This is SATELLITE DEBRIS
aabbcc
Your satellite tracking list
Your tracking list is empty




NASA's NSSDC Master Catalog

Two Line Element Set (TLE):
1 42388U 00055SG  18055.39084633  .00000618  00000-0  35223-3 0  9993
2 42388  98.7560 121.1564 0018571  27.3773 332.8374 14.13252412103978
Source of the keplerian elements: AFSPC